When you browse on this site, cookies collect data to enhance your experience and personalize the content and advertising you see.
Visit our Privacy Policy to learn more. By continuing to use the site, you agree to this use of cookies and data.
  • In Hungary
  • List of Countries
  • For 7 days
  • Water Temperature
  • Weather Map
  • News
  • Weather Widgets
  • user-avatar
    Login

    Hourly Weather Golovinka

    Today, 24 October, Thursday

    Time Temperature Precipitation Wind Pressure Humidity
    00:00 +15°C° 0 mm 0 mps 764 mmHg 58%
    01:00 +14°C° 0 mm 0 mps 764 mmHg 59%
    02:00 +14°C° 0 mm 0 mps 764 mmHg 61%
    03:00 +13°C° 0 mm 0 mps 764 mmHg 62%
    04:00 +13°C° 0 mm 0 mps 764 mmHg 63%
    05:00 +13°C° 0 mm 0 mps 764 mmHg 64%
    06:00 +13°C° 0 mm 0 mps 763 mmHg 65%
    07:00 +14°C° 0 mm 0 mps 764 mmHg 61%
    08:00 +15°C° 0 mm 0 mps 764 mmHg 58%
    09:00 +16°C° 0 mm 1 mps 764 mmHg 55%
    10:00 +19°C° 0 mm 1 mps 764 mmHg 51%
    11:00 +20°C° 0 mm 1 mps 764 mmHg 47%
    12:00 +20°C° 0 mm 2 mps 763 mmHg 43%
    13:00 +20°C° 0 mm 2 mps 763 mmHg 42%
    14:00 +21°C° 0 mm 2 mps 763 mmHg 41%
    15:00 +21°C° 0 mm 2 mps 763 mmHg 40%
    16:00 +20°C° 0 mm 2 mps 762 mmHg 44%
    17:00 +20°C° 0 mm 1 mps 762 mmHg 47%
    18:00 +18°C° 0 mm 1 mps 762 mmHg 50%
    19:00 +18°C° 0 mm 1 mps 762 mmHg 52%
    20:00 +16°C° 0 mm 0 mps 762 mmHg 53%
    21:00 +15°C° 0 mm 0 mps 763 mmHg 55%
    22:00 +15°C° 0 mm 0 mps 762 mmHg 56%
    23:00 +14°C° 0 mm 0 mps 762 mmHg 58%

    Tomorrow, 25 October, Friday

    Time Temperature Precipitation Wind Pressure Humidity
    00:00 +14°C° 0 mm 0 mps 762 mmHg 59%
    01:00 +14°C° 0 mm 0 mps 762 mmHg 60%
    02:00 +15°C° 0 mm 1 mps 762 mmHg 60%
    03:00 +14°C° 0 mm 1 mps 762 mmHg 61%
    04:00 +14°C° 0 mm 1 mps 762 mmHg 62%
    05:00 +14°C° 0 mm 1 mps 762 mmHg 62%
    06:00 +14°C° 0 mm 1 mps 762 mmHg 62%
    07:00 +15°C° 0 mm 1 mps 762 mmHg 60%
    08:00 +15°C° 0 mm 1 mps 762 mmHg 57%
    09:00 +16°C° 0 mm 1 mps 762 mmHg 54%
    10:00 +19°C° 0 mm 1 mps 762 mmHg 50%
    11:00 +20°C° 0 mm 1 mps 762 mmHg 46%
    12:00 +21°C° 0 mm 1 mps 762 mmHg 42%
    13:00 +22°C° 0 mm 1 mps 762 mmHg 41%
    14:00 +22°C° 0 mm 1 mps 761 mmHg 39%
    15:00 +22°C° 0 mm 1 mps 761 mmHg 38%
    16:00 +21°C° 0 mm 1 mps 761 mmHg 41%
    17:00 +20°C° 0 mm 1 mps 761 mmHg 44%
    18:00 +19°C° 0 mm 1 mps 761 mmHg 47%
    19:00 +18°C° 0 mm 1 mps 761 mmHg 48%
    20:00 +18°C° 0 mm 1 mps 761 mmHg 50%
    21:00 +16°C° 0 mm 2 mps 761 mmHg 52%
    22:00 +16°C° 0 mm 2 mps 761 mmHg 54%
    23:00 +15°C° 0 mm 2 mps 762 mmHg 57%

    Day after tomorrow, 26 October, Saturday

    Time Temperature Precipitation Wind Pressure Humidity
    00:00 +14°C° 0 mm 2 mps 762 mmHg 60%
    01:00 +14°C° 0 mm 2 mps 762 mmHg 62%
    02:00 +13°C° 0 mm 2 mps 762 mmHg 64%
    03:00 +13°C° 0 mm 2 mps 762 mmHg 66%
    04:00 +13°C° 0 mm 2 mps 762 mmHg 68%
    05:00 +12°C° 0 mm 2 mps 762 mmHg 69%
    06:00 +12°C° 0 mm 2 mps 762 mmHg 70%
    07:00 +13°C° 0 mm 2 mps 762 mmHg 66%
    08:00 +12°C° 0 mm 3 mps 763 mmHg 62%
    09:00 +13°C° 0 mm 3 mps 763 mmHg 59%
    10:00 +16°C° 0 mm 3 mps 763 mmHg 55%
    11:00 +17°C° 0 mm 3 mps 763 mmHg 52%
    12:00 +19°C° 0 mm 3 mps 763 mmHg 48%
    13:00 +19°C° 0 mm 2 mps 763 mmHg 47%
    14:00 +20°C° 0 mm 2 mps 763 mmHg 46%
    15:00 +20°C° 0 mm 2 mps 762 mmHg 45%
    16:00 +19°C° 0 mm 2 mps 762 mmHg 49%
    17:00 +19°C° 0 mm 1 mps 763 mmHg 52%
    18:00 +18°C° 0 mm 1 mps 763 mmHg 55%
    19:00 +18°C° 0 mm 1 mps 763 mmHg 56%
    20:00 +16°C° 0 mm 2 mps 763 mmHg 58%
    21:00 +15°C° 0 mm 2 mps 763 mmHg 59%
    22:00 +15°C° 0 mm 2 mps 763 mmHg 61%
    23:00 +14°C° 0 mm 1 mps 763 mmHg 63%

    , 27 October, Sunday

    Time Temperature Precipitation Wind Pressure Humidity
    00:00 +14°C° 0 mm 1 mps 763 mmHg 65%
    01:00 +14°C° 0 mm 1 mps 763 mmHg 67%
    02:00 +13°C° 0 mm 1 mps 763 mmHg 69%
    03:00 +12°C° 0 mm 0 mps 763 mmHg 71%
    04:00 +12°C° 0 mm 0 mps 763 mmHg 72%
    05:00 +11°C° 0 mm 0 mps 763 mmHg 74%
    06:00 +11°C° 0 mm 0 mps 763 mmHg 75%
    07:00 +12°C° 0 mm 0 mps 763 mmHg 71%
    08:00 +13°C° 0 mm 0 mps 763 mmHg 67%
    09:00 +15°C° 0 mm 1 mps 763 mmHg 63%
    10:00 +16°C° 0 mm 1 mps 763 mmHg 57%
    11:00 +18°C° 0 mm 2 mps 763 mmHg 51%
    12:00 +19°C° 0 mm 2 mps 763 mmHg 46%
    13:00 +19°C° 0 mm 3 mps 763 mmHg 44%
    14:00 +20°C° 0 mm 3 mps 763 mmHg 43%
    15:00 +20°C° 0 mm 3 mps 762 mmHg 42%
    16:00 +19°C° 0 mm 3 mps 762 mmHg 46%
    17:00 +17°C° 0 mm 3 mps 762 mmHg 50%
    18:00 +16°C° 0 mm 3 mps 762 mmHg 53%
    19:00 +16°C° 0 mm 3 mps 762 mmHg 55%
    20:00 +14°C° 0 mm 3 mps 762 mmHg 57%
    21:00 +14°C° 0 mm 3 mps 762 mmHg 59%
    22:00 +14°C° 0 mm 3 mps 762 mmHg 61%
    23:00 +13°C° 0 mm 3 mps 762 mmHg 63%

    27 October, Sunday

    Time Temperature Precipitation Wind Pressure Humidity
    00:00 +14°C° 0 mm 1 mps 763 mmHg 65%
    01:00 +14°C° 0 mm 1 mps 763 mmHg 67%
    02:00 +13°C° 0 mm 1 mps 763 mmHg 69%
    03:00 +12°C° 0 mm 0 mps 763 mmHg 71%
    04:00 +12°C° 0 mm 0 mps 763 mmHg 72%
    05:00 +11°C° 0 mm 0 mps 763 mmHg 74%
    06:00 +11°C° 0 mm 0 mps 763 mmHg 75%
    07:00 +12°C° 0 mm 0 mps 763 mmHg 71%
    08:00 +13°C° 0 mm 0 mps 763 mmHg 67%
    09:00 +15°C° 0 mm 1 mps 763 mmHg 63%
    10:00 +16°C° 0 mm 1 mps 763 mmHg 57%
    11:00 +18°C° 0 mm 2 mps 763 mmHg 51%
    12:00 +19°C° 0 mm 2 mps 763 mmHg 46%
    13:00 +19°C° 0 mm 3 mps 763 mmHg 44%
    14:00 +20°C° 0 mm 3 mps 763 mmHg 43%
    15:00 +20°C° 0 mm 3 mps 762 mmHg 42%
    16:00 +19°C° 0 mm 3 mps 762 mmHg 46%
    17:00 +17°C° 0 mm 3 mps 762 mmHg 50%
    18:00 +16°C° 0 mm 3 mps 762 mmHg 53%
    19:00 +16°C° 0 mm 3 mps 762 mmHg 55%
    20:00 +14°C° 0 mm 3 mps 762 mmHg 57%
    21:00 +14°C° 0 mm 3 mps 762 mmHg 59%
    22:00 +14°C° 0 mm 3 mps 762 mmHg 61%
    23:00 +13°C° 0 mm 3 mps 762 mmHg 63%

    28 October, Monday

    Time Temperature Precipitation Wind Pressure Humidity
    00:00 +14°C° 0 mm 2 mps 762 mmHg 64%
    01:00 +13°C° 0 mm 3 mps 761 mmHg 65%
    02:00 +13°C° 0 mm 3 mps 761 mmHg 66%
    03:00 +12°C° 0 mm 3 mps 761 mmHg 67%
    04:00 +12°C° 0 mm 3 mps 761 mmHg 68%
    05:00 +12°C° 0 mm 3 mps 761 mmHg 69%
    06:00 +11°C° 0 mm 3 mps 760 mmHg 71%
    07:00 +12°C° 0 mm 3 mps 760 mmHg 69%
    08:00 +13°C° 0 mm 3 mps 760 mmHg 66%
    09:00 +14°C° 0 mm 4 mps 760 mmHg 64%
    10:00 +15°C° 0 mm 4 mps 760 mmHg 60%
    11:00 +17°C° 0 mm 5 mps 760 mmHg 55%
    12:00 +19°C° 0 mm 5 mps 759 mmHg 51%
    13:00 +19°C° 0 mm 5 mps 759 mmHg 52%
    14:00 +19°C° 0 mm 5 mps 759 mmHg 53%
    15:00 +19°C° 0 mm 5 mps 758 mmHg 54%
    16:00 +17°C° 0 mm 5 mps 758 mmHg 58%
    17:00 +17°C° 0 mm 4 mps 758 mmHg 62%
    18:00 +15°C° 0 mm 4 mps 758 mmHg 66%
    19:00 +14°C° 0 mm 4 mps 758 mmHg 68%
    20:00 +14°C° 0 mm 3 mps 758 mmHg 69%
    21:00 +14°C° 0 mm 3 mps 758 mmHg 71%
    22:00 +13°C° 0 mm 3 mps 758 mmHg 72%
    23:00 +13°C° 0 mm 3 mps 758 mmHg 72%

    29 October, Tuesday

    Time Temperature Precipitation Wind Pressure Humidity
    00:00 +14°C° 0 mm 2 mps 758 mmHg 73%
    01:00 +14°C° 0 mm 2 mps 758 mmHg 74%
    02:00 +14°C° 0 mm 2 mps 758 mmHg 74%
    03:00 +14°C° 0 mm 2 mps 758 mmHg 74%
    04:00 +14°C° 0 mm 1 mps 758 mmHg 74%
    05:00 +13°C° 0 mm 1 mps 758 mmHg 74%
    06:00 +13°C° 0 mm 1 mps 758 mmHg 74%
    07:00 +14°C° 0 mm 1 mps 758 mmHg 71%
    08:00 +13°C° 0 mm 0 mps 758 mmHg 69%
    09:00 +14°C° 0 mm 0 mps 758 mmHg 66%
    10:00 +15°C° 0 mm 0 mps 758 mmHg 62%
    11:00 +18°C° 0 mm 1 mps 758 mmHg 57%
    12:00 +19°C° 0 mm 1 mps 758 mmHg 53%
    13:00 +19°C° 0 mm 1 mps 758 mmHg 51%
    14:00 +20°C° 0 mm 1 mps 758 mmHg 50%
    15:00 +20°C° 0 mm 1 mps 758 mmHg 48%
    16:00 +19°C° 0 mm 1 mps 758 mmHg 51%
    17:00 +18°C° 0 mm 1 mps 758 mmHg 55%
    18:00 +16°C° 0 mm 2 mps 758 mmHg 58%
    19:00 +16°C° 0 mm 2 mps 758 mmHg 60%
    20:00 +16°C° 0 mm 2 mps 758 mmHg 62%
    21:00 +14°C° 0 mm 3 mps 758 mmHg 64%
    22:00 +14°C° 0 mm 3 mps 758 mmHg 65%
    23:00 +13°C° 0 mm 3 mps 758 mmHg 67%
    Show more